"Pseudo-MPEC" for C33UVL2

Created 2020 Sep 21 10:07:04 UT using Find_Orb

Click here for an explanation of pseudo-MPECs

 
 Astrometry: 
     C33UVL2  C2020 08 28.40984 02 39 17.60 +33 40 20.0    ~8SAb 20.7 GVNEOCPG96
     C33UVL2  C2020 08 28.41503 02 39 23.91 +33 39 39.7    ~8SAb 20.9 GVNEOCPG96
     C33UVL2  C2020 08 28.42023 02 39 30.20 +33 38 58.7    ~8SAb 20.6 GVNEOCPG96
     C33UVL2  C2020 08 28.42542 02 39 36.61 +33 38 17.4    ~8SAb 20.5 GVNEOCPG96
     C33UVL2  C2020 08 28.47761 02 40 40.17 +33 31 18.9    ~8SC7 20.7 GVNEOCPI52
     C33UVL2  C2020 08 28.48057 02 40 43.64 +33 30 55.3    ~8SC7 20.2 GVNEOCPI52
     C33UVL2  C2020 08 28.48206 02 40 45.43 +33 30 42.0    ~8SC7 21.1 GVNEOCPI52
     C33UVL2  C2020 08 29.38066 02 59 56.69 +31 20 41.6    ~8TB7 21.5 GVNEOCPG96
     C33UVL2  C2020 08 29.38159 02 59 57.81 +31 20 32.6    ~8TB7       VNEOCPG96
     C33UVL2  C2020 08 29.38252 02 59 58.93 +31 20 25.2    ~8TB7 21.1 GVNEOCPG96

Station data:
(G96) Mt. Lemmon Survey  (N32.442754 W110.788720)  US/Arizona.  Observers T.
   A. Pruyne, B. M. Africano, E. J. Christensen, G. A. Farneth, D. C. Fuls,
   A. R. Gibbs, A. D. Grauer, H. Gröller, J. A. Johnson, R. A. Kowalski, S.
   M. Larson, G. J. Leonard, D. Rankin, R. L. Seaman, F. C. Shelly. 1.5-m
   reflector + 10K CCD.
(I52) Steward Observatory, Mt. Lemmon Station  (N32.442547 W110.788920)
   US/Arizona.  Observers T. A. Pruyne, B. M. Africano, E. J. Christensen, G.
   A. Farneth, D. C. Fuls, A. R. Gibbs, A. D. Grauer, H. Gröller, J. A.
   Johnson, R. A. Kowalski, S. M. Larson, G. J. Leonard, D. Rankin, R. L.
   Seaman, F. C. Shelly. 1.0-m reflector + CCD.

Orbital elements:  C33UVL2
   Perihelion 2020 Oct 6.845895 +/- 1.05 TT = 20:18:05 (JD 2459129.345895)
Epoch 2020 Aug 29.0 TT = JDT 2459090.5   Earth MOID: 0.0060   AutoNEOCP
M 333.31034117 +/- 0.7              (J2000 ecliptic)
n   0.68706510 +/- 0.00364          Peri.  218.69558 +/- 1.2
a   1.27195219 +/- 0.0045           Node   162.58661 +/- 0.038
e   0.2352232 +/- 0.00305           Incl.   10.67596 +/- 0.33
P   1.43/523.96d           H 25.0   G  0.15   U  9.0  
q 0.97275942 +/- 0.00279    Q 1.57114496 +/- 0.00875
From 10 observations 2020 Aug. 28-29 (23.3 hr); mean residual 0".45
Residuals in arcseconds: 
200828 G96  .40+  .31-    200828 I52  1.2+  .07+    200829 G96  .00   .53-    
200828 G96  .01-  .20+    200828 I52  .40-  .55+    200829 G96  .02-  .29+    
200828 G96  .76-  .19+    200828 I52  .64-  .61-    
200828 G96  .21+  .09-    200829 G96  .02+  .24+    

Ephemerides (geocentric):
Date (UTC) HH   RA              Dec         delta   r     elong  mag " sig PA
---- -- -- --  -------------   -----------  ------ ------ -----  --- ---- ---
2020 09 21 10  06 57 21.531   -14 25 31.48  .10916 .98139  75.0 23.7 2900 128
2020 09 21 11  06 57 31.382   -14 27 21.50  .10932 .98135  75.0 23.7 2901 128
2020 09 21 12  06 57 41.211   -14 29 11.16  .10948 .98130  75.0 23.7 2903 128
2020 09 21 13  06 57 51.019   -14 31 00.47  .10964 .98125  75.0 23.7 2904 128
2020 09 21 14  06 58 00.805   -14 32 49.43  .10980 .98121  75.0 23.7 2906 128
2020 09 21 15  06 58 10.569   -14 34 38.04  .10996 .98116  75.0 23.7 2907 128
2020 09 21 16  06 58 20.311   -14 36 26.29  .11012 .98112  75.0 23.7 2908 128
2020 09 21 17  06 58 30.032   -14 38 14.20  .11028 .98107  75.0 23.7 2910 128
2020 09 21 18  06 58 39.732   -14 40 01.76  .11044 .98102  75.0 23.7 2911 128
2020 09 21 19  06 58 49.410   -14 41 48.98  .11060 .98098  75.0 23.7 2913 128
2020 09 21 20  06 58 59.067   -14 43 35.85  .11076 .98093  75.0 23.7 2914 128
2020 09 21 21  06 59 08.703   -14 45 22.39  .11092 .98089  75.0 23.7 2916 128
2020 09 21 22  06 59 18.318   -14 47 08.58  .11108 .98084  75.0 23.7 2917 128
2020 09 21 23  06 59 27.912   -14 48 54.43  .11124 .98080  75.0 23.8 2918 128
2020 09 22 00  06 59 37.485   -14 50 39.94  .11140 .98075  75.0 23.8 2920 128
2020 09 22 01  06 59 47.038   -14 52 25.12  .11156 .98071  75.0 23.8 2921 128
2020 09 22 02  06 59 56.570   -14 54 09.97  .11172 .98067  74.9 23.8 2923 128
2020 09 22 03  07 00 06.081   -14 55 54.47  .11188 .98062  74.9 23.8 2924 128
2020 09 22 04  07 00 15.572   -14 57 38.65  .11204 .98058  74.9 23.8 2925 128
2020 09 22 05  07 00 25.042   -14 59 22.50  .11221 .98053  74.9 23.8 2927 128
2020 09 22 06  07 00 34.493   -15 01 06.02  .11237 .98049  74.9 23.8 2928 128
2020 09 22 07  07 00 43.923   -15 02 49.20  .11253 .98044  74.9 23.8 2929 128
2020 09 22 08  07 00 53.332   -15 04 32.07  .11269 .98040  74.9 23.8 2931 128
2020 09 22 09  07 01 02.722   -15 06 14.60  .11285 .98036  74.9 23.8 2932 128
2020 09 22 10  07 01 12.092   -15 07 56.82  .11301 .98031  74.9 23.8 2933 128
2020 09 22 11  07 01 21.442   -15 09 38.71  .11317 .98027  74.9 23.8 2935 128
2020 09 22 12  07 01 30.772   -15 11 20.28  .11333 .98023  74.9 23.8 2936 128
2020 09 22 13  07 01 40.083   -15 13 01.52  .11349 .98018  74.9 23.8 2937 128
2020 09 22 14  07 01 49.374   -15 14 42.46  .11365 .98014  74.9 23.8 2939 128
2020 09 22 15  07 01 58.645   -15 16 23.07  .11381 .98010  74.9 23.8 2940 128
2020 09 22 16  07 02 07.897   -15 18 03.37  .11398 .98005  74.9 23.8 2941 128
2020 09 22 17  07 02 17.130   -15 19 43.35  .11414 .98001  74.9 23.8 2943 128
2020 09 22 18  07 02 26.343   -15 21 23.02  .11430 .97997  74.9 23.8 2944 128
2020 09 22 19  07 02 35.538   -15 23 02.37  .11446 .97993  74.9 23.8 2945 128
2020 09 22 20  07 02 44.713   -15 24 41.42  .11462 .97988  74.9 23.8 2946 128
2020 09 22 21  07 02 53.869   -15 26 20.15  .11478 .97984  74.9 23.8 2948 128
2020 09 22 22  07 03 03.006   -15 27 58.58  .11494 .97980  74.9 23.8 2949 128
2020 09 22 23  07 03 12.124   -15 29 36.70  .11510 .97976  74.9 23.8 2950 128
2020 09 23 00  07 03 21.224   -15 31 14.52  .11526 .97972  74.9 23.8 2952 128
2020 09 23 01  07 03 30.305   -15 32 52.03  .11543 .97967  74.9 23.8 2953 128
2020 09 23 02  07 03 39.367   -15 34 29.24  .11559 .97963  74.9 23.8 2954 128
2020 09 23 03  07 03 48.411   -15 36 06.14  .11575 .97959  74.9 23.8 2955 128
2020 09 23 04  07 03 57.436   -15 37 42.75  .11591 .97955  74.9 23.8 2957 128
2020 09 23 05  07 04 06.443   -15 39 19.05  .11607 .97951  74.9 23.8 2958 128
2020 09 23 06  07 04 15.431   -15 40 55.06  .11623 .97947  74.9 23.8 2959 128
2020 09 23 07  07 04 24.402   -15 42 30.77  .11639 .97943  74.8 23.8 2960 128
2020 09 23 08  07 04 33.354   -15 44 06.19  .11655 .97938  74.8 23.8 2961 128
2020 09 23 09  07 04 42.288   -15 45 41.31  .11672 .97934  74.8 23.8 2963 128